CUBESX-HSE 3 (RS42S)

Last updated on Mon Sep 21 2026 00:03:14 GMT+0000 (Coordinated Universal Time)

1 57178U 23091N 26263.58272641 .00009462 00000+0 29589-3 0 9993 2 57178 97.4997 330.4716 0011468 111.7131 248.5333 15.33304579179032
UTC large
Height (km)
Speed (km/s)
/
Latitude / Longitude
Inclination (degrees)
Orbital Period (minutes)
Azimuth
Elevation
Range (km)
Doppler Factor

Next 0 passes for location: London (51.5072 / 0.1276)

No passes found over London.
CUBESX-HSE 3 (RS42S)